Miscellaneous Local Product
Issued by NWS North Platte, NE

Home | Current Version | Previous Version | Text Only | Print | Product List | Glossary On
Versions: 1 2 3 4 5 6 7 8 9 10 11 12 13 14 15 16 17 18 19 20 21 22 23 24 25 26 27 28 29 30 31 32 33 34 35 36 37 38 39 40 41 42 43 44 45 46 47 48 49 50
337
AXUS43 KLBF 241810
MISLBF


WESTERN AND NORTH CENTRAL NEBRASKA HOURLY WEATHER ROUNDUP
NATIONAL WEATHER SERVICE NORTH PLATTE NE
100 PM CDT WED AUG 24 2016

NOTE: "FAIR" INDICATES FEW OR NO CLOUDS BELOW 12,000 FEET WITH NO
SIGNIFICANT WEATHER AND/OR OBSTRUCTIONS TO VISIBILITY.

NOTE: STATIONS NOT REPORTING VARIABLES SUCH AS SKY/WEATHER OR
PRESSURE ARE PROVIDED BY RAWS AND APRS NETWORKS AND ARE NOT UNDER
NATIONAL WEATHER SERVICE QUALITY CONTROL.

...OBSERVATIONS IN AND NEAR THE EASTERN PANHANDLE OF NEBRASKA...

CITY           SKY/WX    TMP DP  RH WIND       PRES   REMARKS
PINE RIDGE     CLOUDY    68  48  48 NE3       30.21F
CHADRON        CLOUDY    69  42  37 NE8       30.21F
ALLIANCE       MOSUNNY   67  40  37 VRB7      30.22F
SIDNEY         CLOUDY    67  39  35 E7        30.24F
$$

...OBSERVATIONS IN NORTHERN NEBRASKA AND FAR SOUTHERN SOUTH DAKOTA...

CITY           SKY/WX    TMP DP  RH WIND       PRES   REMARKS
WINNER         PTSUNNY   68  50  52 NW15      30.13F
VALENTINE      CLOUDY    66  45  46 N13       30.17F
THEDFORD       MOSUNNY   72  47  41 N8        30.19S
AINSWORTH      MOSUNNY   67  50  53 N13       30.17R
O`NEILL        PTSUNNY   75  47  36 N12       30.13S
ORD            CLOUDY    76  48  37 N9        30.09S
BROKEN BOW     CLOUDY    71  48  43 NE8       30.13S
$$

...OBSERVATIONS IN SOUTHWEST NEBRASKA AND FAR NORTHEAST COLORADO...

CITY           SKY/WX    TMP DP  RH WIND       PRES   REMARKS
WRAY           FAIR      73  34  23 E13G18    30.20R
HOLYOKE        FAIR      73  41  31 N6        30.23R
IMPERIAL       CLOUDY    76  36  23 E14       30.19R
OGALLALA       CLOUDY    75  33  21 N10       30.20R
NORTH PLATTE   CLOUDY    79  43  27 N13       30.15S
MCCOOK         CLOUDY    74  44  34 NE13      30.12F
LEXINGTON      PTSUNNY   73  48  41 NE5       30.12R
$$

...OBSERVATIONS IN CENTRAL LINCOLN COUNTY AREA...

CITY           SKY/WX    TMP DP  RH WIND       PRES   REMARKS
N.P. AIRPORT   CLOUDY    79  43  27 N13       30.15S
$$

...SOME OBSERVATIONS FROM AROUND THE REGION...

CITY           SKY/WX    TMP DP  RH WIND       PRES   REMARKS
DENVER         CLOUDY    66  45  46 S7        30.27R
LARAMIE        CLOUDY    65  41  41 S22       30.27F
CHEYENNE       CLOUDY    60  44  55 S16       30.29F
SCOTTSBLUFF    CLOUDY    68  44  42 E7        30.22F
RAPID CITY     MOSUNNY   72  46  39 N8        30.19F
BISMARCK       CLOUDY    68  48  48 W25G36    30.02S
PIERRE         CLOUDY    70  49  47 NW14      30.10S
SIOUX FALLS    CLOUDY    74  58  57 NW10      30.06R
OMAHA          PTSUNNY   82  64  54 NE12      29.99F
GRAND ISLAND   CLOUDY    74  51  44 N10       30.09R
KANSAS CITY    LGT RAIN  77  72  84 SW7       30.01F
WICHITA        MOSUNNY   87  68  52 S12       29.99F HX  90
OKLAHOMA CITY  MOSUNNY   92  67  43 S23       30.04F HX  95
DALLAS         MOSUNNY   91  68  46 SW13      30.09F HX  95
AMARILLO       SUNNY     81  59  47 W10       30.10F
DODGE CITY     CLOUDY    83  60  45 VRB5      30.03F
HAYS           CLOUDY    70  59  68 N17       30.02F
GOODLAND       CLOUDY    71  38  29 NE21G26   30.16R
$$




USA.gov is the U.S. government's official web portal to all federal, state and local government web resources and services.